When you browse on this site, cookies collect data to enhance your experience and personalize the content and advertising you see.
Visit our Privacy Policy to learn more. By continuing to use the site, you agree to this use of cookies and data.
  • In Hungary
  • List of Countries
  • For 7 days
  • Water Temperature
  • Weather Map
  • News
  • Weather Widgets
  • user-avatar
    Login

    Hourly Weather Bansbaria

    Today, 22 February, Saturday

    Time Temperature Precipitation Wind Pressure Humidity
    00:00 +24°C° 0 mm 2 mps 762 mmHg 38%
    01:00 +23°C° 0 mm 1 mps 762 mmHg 39%
    02:00 +23°C° 0 mm 1 mps 762 mmHg 40%
    03:00 +22°C° 0 mm 1 mps 761 mmHg 42%
    04:00 +22°C° 0 mm 1 mps 761 mmHg 43%
    05:00 +21°C° 0 mm 1 mps 761 mmHg 44%
    06:00 +21°C° 0 mm 1 mps 761 mmHg 45%
    07:00 +23°C° 0 mm 1 mps 762 mmHg 41%
    08:00 +25°C° 0 mm 1 mps 763 mmHg 38%
    09:00 +27°C° 0 mm 1 mps 764 mmHg 34%
    10:00 +29°C° 0 mm 2 mps 763 mmHg 31%
    11:00 +30°C° 0 mm 2 mps 763 mmHg 28%
    12:00 +32°C° 0 mm 2 mps 762 mmHg 24%
    13:00 +34°C° 0 mm 2 mps 761 mmHg 24%
    14:00 +34°C° 0 mm 2 mps 761 mmHg 23%
    15:00 +35°C° 0 mm 2 mps 760 mmHg 22%
    16:00 +34°C° 0 mm 2 mps 760 mmHg 25%
    17:00 +31°C° 0 mm 2 mps 760 mmHg 28%
    18:00 +30°C° 0 mm 2 mps 760 mmHg 31%
    19:00 +29°C° 0 mm 2 mps 760 mmHg 32%
    20:00 +28°C° 0 mm 1 mps 761 mmHg 33%
    21:00 +27°C° 0 mm 1 mps 761 mmHg 34%
    22:00 +26°C° 0 mm 1 mps 761 mmHg 37%
    23:00 +25°C° 0 mm 1 mps 761 mmHg 39%

    Tomorrow, 23 February, Sunday

    Time Temperature Precipitation Wind Pressure Humidity
    00:00 +24°C° 0 mm 1 mps 761 mmHg 42%
    01:00 +24°C° 0 mm 1 mps 761 mmHg 43%
    02:00 +23°C° 0 mm 1 mps 760 mmHg 44%
    03:00 +23°C° 0 mm 1 mps 760 mmHg 46%
    04:00 +22°C° 0 mm 1 mps 760 mmHg 47%
    05:00 +22°C° 0 mm 1 mps 760 mmHg 48%
    06:00 +19°C° 0 mm 0 mps 760 mmHg 49%
    07:00 +23°C° 0 mm 1 mps 761 mmHg 45%
    08:00 +25°C° 0 mm 1 mps 761 mmHg 40%
    09:00 +28°C° 0 mm 1 mps 762 mmHg 35%
    10:00 +29°C° 0 mm 2 mps 762 mmHg 31%
    11:00 +31°C° 0 mm 2 mps 761 mmHg 27%
    12:00 +34°C° 0 mm 2 mps 761 mmHg 23%
    13:00 +35°C° 0 mm 2 mps 760 mmHg 22%
    14:00 +35°C° 0 mm 2 mps 759 mmHg 22%
    15:00 +36°C° 0 mm 2 mps 758 mmHg 21%
    16:00 +34°C° 0 mm 2 mps 758 mmHg 23%
    17:00 +32°C° 0 mm 1 mps 758 mmHg 26%
    18:00 +31°C° 0 mm 1 mps 758 mmHg 28%
    19:00 +29°C° 0 mm 1 mps 758 mmHg 33%
    20:00 +27°C° 0 mm 1 mps 759 mmHg 37%
    21:00 +26°C° 0 mm 2 mps 759 mmHg 41%
    22:00 +25°C° 0 mm 2 mps 759 mmHg 43%
    23:00 +24°C° 0 mm 2 mps 759 mmHg 45%

    Day after tomorrow, 24 February, Monday

    Time Temperature Precipitation Wind Pressure Humidity
    00:00 +24°C° 0 mm 2 mps 759 mmHg 47%
    01:00 +23°C° 0 mm 2 mps 758 mmHg 47%
    02:00 +23°C° 0 mm 2 mps 758 mmHg 47%
    03:00 +23°C° 0 mm 2 mps 758 mmHg 47%
    04:00 +22°C° 0 mm 1 mps 758 mmHg 48%
    05:00 +22°C° 0 mm 1 mps 758 mmHg 48%
    06:00 +22°C° 0 mm 1 mps 757 mmHg 48%
    07:00 +23°C° 0 mm 1 mps 758 mmHg 44%
    08:00 +23°C° 0 mm 0 mps 759 mmHg 41%
    09:00 +25°C° 0 mm 0 mps 760 mmHg 37%
    10:00 +29°C° 0 mm 1 mps 760 mmHg 33%
    11:00 +31°C° 0 mm 1 mps 759 mmHg 29%
    12:00 +33°C° 0 mm 1 mps 759 mmHg 25%
    13:00 +34°C° 0 mm 2 mps 758 mmHg 24%
    14:00 +35°C° 0 mm 2 mps 757 mmHg 23%
    15:00 +35°C° 0 mm 2 mps 756 mmHg 23%
    16:00 +34°C° 0 mm 2 mps 756 mmHg 26%
    17:00 +32°C° 0 mm 2 mps 756 mmHg 29%
    18:00 +30°C° 0 mm 1 mps 756 mmHg 32%
    19:00 +29°C° 0 mm 3 mps 756 mmHg 38%
    20:00 +28°C° 0 mm 4 mps 757 mmHg 44%
    21:00 +27°C° 0 mm 5 mps 757 mmHg 50%
    22:00 +26°C° 0 mm 4 mps 757 mmHg 57%
    23:00 +25°C° 0 mm 3 mps 757 mmHg 65%

    25 February, Tuesday

    Time Temperature Precipitation Wind Pressure Humidity
    00:00 +24°C° 0 mm 2 mps 757 mmHg 73%
    01:00 +24°C° 0.1 mm 2 mps 757 mmHg 76%
    02:00 +23°C° 0.1 mm 2 mps 757 mmHg 79%
    03:00 +23°C° 0.1 mm 2 mps 756 mmHg 83%
    04:00 +22°C° 0.4 mm 3 mps 757 mmHg 78%
    05:00 +22°C° 0.4 mm 4 mps 757 mmHg 73%
    06:00 +22°C° 0.4 mm 5 mps 757 mmHg 68%
    07:00 +22°C° 0.1 mm 4 mps 757 mmHg 68%
    08:00 +22°C° 0.1 mm 4 mps 758 mmHg 68%
    09:00 +22°C° 0.1 mm 3 mps 759 mmHg 69%
    10:00 +24°C° 0.2 mm 3 mps 759 mmHg 67%
    11:00 +24°C° 0.2 mm 3 mps 759 mmHg 65%
    12:00 +25°C° 0.2 mm 2 mps 759 mmHg 63%
    13:00 +25°C° 0 mm 2 mps 758 mmHg 58%
    14:00 +26°C° 0 mm 2 mps 757 mmHg 52%
    15:00 +27°C° 0 mm 2 mps 757 mmHg 46%
    16:00 +27°C° 0 mm 2 mps 756 mmHg 47%
    17:00 +26°C° 0 mm 3 mps 756 mmHg 49%
    18:00 +26°C° 0 mm 3 mps 756 mmHg 50%
    19:00 +25°C° 0 mm 2 mps 756 mmHg 53%
    20:00 +24°C° 0 mm 2 mps 757 mmHg 56%
    21:00 +23°C° 0 mm 1 mps 757 mmHg 59%
    22:00 +21°C° 0.1 mm 2 mps 757 mmHg 62%
    23:00 +21°C° 0.1 mm 2 mps 758 mmHg 65%

    26 February, Wednesday

    Time Temperature Precipitation Wind Pressure Humidity
    00:00 +20°C° 0.1 mm 2 mps 758 mmHg 68%
    01:00 +20°C° 0 mm 2 mps 758 mmHg 70%
    02:00 +20°C° 0 mm 1 mps 757 mmHg 73%
    03:00 +20°C° 0 mm 1 mps 757 mmHg 75%
    04:00 +20°C° 0.1 mm 1 mps 757 mmHg 77%
    05:00 +19°C° 0.1 mm 1 mps 757 mmHg 80%
    06:00 +19°C° 0.1 mm 1 mps 758 mmHg 82%
    07:00 +20°C° 0 mm 2 mps 758 mmHg 76%
    08:00 +23°C° 0 mm 2 mps 759 mmHg 70%
    09:00 +24°C° 0 mm 2 mps 759 mmHg 64%
    10:00 +26°C° 0 mm 3 mps 759 mmHg 57%
    11:00 +28°C° 0 mm 3 mps 759 mmHg 50%
    12:00 +30°C° 0 mm 3 mps 758 mmHg 43%
    13:00 +31°C° 0 mm 3 mps 757 mmHg 38%
    14:00 +33°C° 0 mm 3 mps 757 mmHg 33%
    15:00 +33°C° 0 mm 3 mps 756 mmHg 28%
    16:00 +31°C° 0 mm 3 mps 756 mmHg 34%
    17:00 +29°C° 0 mm 3 mps 756 mmHg 40%
    18:00 +27°C° 0 mm 3 mps 756 mmHg 46%
    19:00 +26°C° 0.1 mm 2 mps 757 mmHg 51%
    20:00 +26°C° 0.1 mm 2 mps 757 mmHg 55%
    21:00 +25°C° 0.1 mm 1 mps 758 mmHg 60%
    22:00 +24°C° 0.1 mm 1 mps 758 mmHg 62%
    23:00 +24°C° 0.1 mm 2 mps 758 mmHg 63%

    27 February, Thursday

    Time Temperature Precipitation Wind Pressure Humidity
    00:00 +23°C° 0.1 mm 2 mps 758 mmHg 65%
    01:00 +21°C° 0.1 mm 2 mps 758 mmHg 68%
    02:00 +21°C° 0.1 mm 2 mps 757 mmHg 70%
    03:00 +21°C° 0.1 mm 1 mps 757 mmHg 73%
    04:00 +21°C° 0 mm 1 mps 757 mmHg 74%
    05:00 +20°C° 0 mm 1 mps 757 mmHg 75%
    06:00 +20°C° 0 mm 1 mps 757 mmHg 75%
    07:00 +22°C° 0 mm 1 mps 757 mmHg 68%
    08:00 +24°C° 0 mm 1 mps 758 mmHg 61%
    09:00 +26°C° 0 mm 1 mps 758 mmHg 55%
    10:00 +27°C° 0 mm 1 mps 758 mmHg 46%
    11:00 +29°C° 0 mm 2 mps 758 mmHg 37%
    12:00 +31°C° 0 mm 3 mps 757 mmHg 28%
    13:00 +31°C° 0 mm 3 mps 757 mmHg 27%
    14:00 +31°C° 0 mm 3 mps 756 mmHg 25%
    15:00 +33°C° 0 mm 4 mps 755 mmHg 23%
    16:00 +31°C° 0 mm 3 mps 755 mmHg 27%
    17:00 +29°C° 0 mm 3 mps 755 mmHg 30%
    18:00 +28°C° 0 mm 2 mps 755 mmHg 33%
    19:00 +27°C° 0 mm 2 mps 756 mmHg 35%
    20:00 +26°C° 0 mm 2 mps 756 mmHg 37%
    21:00 +25°C° 0 mm 3 mps 757 mmHg 39%
    22:00 +24°C° 0 mm 2 mps 757 mmHg 43%
    23:00 +23°C° 0 mm 2 mps 757 mmHg 47%
    Show more